Time,TemperatureF,DewpointF,PressureIn,WindDirection,WindDirectionDegrees,WindSpeedMPH,WindSpeedGustMPH,Humidity,HourlyPrecipIn,Conditions,Clouds,dailyrainin,SoftwareType,DateUTC
2013-11-28 00:03:00,22.7,19.0,30.21,NW,315,0.0,0.0,85,0.00,,,0.00,weatherlink.com 1.10,2013-11-28 05:03:00,
2013-11-28 00:18:00,22.2,19.0,30.22,NW,315,0.0,0.0,87,0.00,,,0.00,weatherlink.com 1.10,2013-11-28 05:18:00,
2013-11-28 00:33:00,21.6,18.0,30.22,NW,315,0.0,0.0,87,0.00,,,0.00,weatherlink.com 1.10,2013-11-28 05:33:00,
2013-11-28 00:48:00,21.3,19.0,30.23,NW,315,0.0,0.0,90,0.00,,,0.00,weatherlink.com 1.10,2013-11-28 05:48:00,
2013-11-28 01:03:00,20.9,19.0,30.23,NW,315,0.0,0.0,90,0.00,,,0.00,weatherlink.com 1.10,2013-11-28 06:03:00,
2013-11-28 01:19:00,21.6,19.0,30.24,NW,315,0.0,0.0,90,0.00,,,0.00,weatherlink.com 1.10,2013-11-28 06:19:00,
2013-11-28 01:34:00,21.2,18.0,30.24,NW,315,0.0,0.0,88,0.00,,,0.00,weatherlink.com 1.10,2013-11-28 06:34:00,
2013-11-28 01:49:00,20.6,18.0,30.25,NW,315,0.0,0.0,90,0.00,,,0.00,weatherlink.com 1.10,2013-11-28 06:49:00,
2013-11-28 02:04:00,20.4,18.0,30.25,NW,315,0.0,0.0,90,0.00,,,0.00,weatherlink.com 1.10,2013-11-28 07:04:00,
2013-11-28 02:19:00,20.0,18.0,30.26,NW,315,0.0,0.0,91,0.00,,,0.00,weatherlink.com 1.10,2013-11-28 07:19:00,
2013-11-28 02:34:00,19.6,17.0,30.27,NW,315,0.0,0.0,91,0.00,,,0.00,weatherlink.com 1.10,2013-11-28 07:34:00,
2013-11-28 02:49:00,20.3,17.0,30.28,NW,315,0.0,0.0,88,0.00,,,0.00,weatherlink.com 1.10,2013-11-28 07:49:00,
2013-11-28 03:04:00,20.2,18.0,30.29,NW,315,0.0,0.0,89,0.00,,,0.00,weatherlink.com 1.10,2013-11-28 08:04:00,
2013-11-28 03:19:00,20.0,18.0,30.29,NW,315,0.0,0.0,90,0.00,,,0.00,weatherlink.com 1.10,2013-11-28 08:19:00,
2013-11-28 03:34:00,19.9,18.0,30.29,NW,315,0.0,0.0,90,0.00,,,0.00,weatherlink.com 1.10,2013-11-28 08:34:00,
2013-11-28 03:49:00,19.4,17.0,30.30,NW,315,0.0,0.0,91,0.00,,,0.00,weatherlink.com 1.10,2013-11-28 08:49:00,
2013-11-28 04:04:00,18.8,17.0,30.30,NW,315,0.0,0.0,91,0.00,,,0.00,weatherlink.com 1.10,2013-11-28 09:04:00,
2013-11-28 04:19:00,19.2,17.0,30.30,NW,315,0.0,0.0,92,0.00,,,0.00,weatherlink.com 1.10,2013-11-28 09:19:00,
2013-11-28 04:34:00,18.9,17.0,30.30,NW,315,0.0,0.0,91,0.00,,,0.00,weatherlink.com 1.10,2013-11-28 09:34:00,
2013-11-28 04:49:00,19.6,18.0,30.31,NW,315,0.0,0.0,92,0.00,,,0.00,weatherlink.com 1.10,2013-11-28 09:49:00,
2013-11-28 05:04:00,19.1,17.0,30.31,NW,315,0.0,0.0,90,0.00,,,0.00,weatherlink.com 1.10,2013-11-28 10:04:00,
2013-11-28 05:19:00,18.7,17.0,30.32,NW,315,0.0,0.0,91,0.00,,,0.00,weatherlink.com 1.10,2013-11-28 10:19:00,
2013-11-28 05:34:00,18.6,16.0,30.33,NW,315,0.0,0.0,91,0.00,,,0.00,weatherlink.com 1.10,2013-11-28 10:34:00,
2013-11-28 05:49:00,18.4,17.0,30.34,NW,315,0.0,0.0,92,0.00,,,0.00,weatherlink.com 1.10,2013-11-28 10:49:00,
2013-11-28 06:04:00,18.1,16.0,30.34,NW,315,0.0,0.0,92,0.00,,,0.00,weatherlink.com 1.10,2013-11-28 11:04:00,
2013-11-28 06:19:00,18.0,16.0,30.35,NW,315,0.0,0.0,92,0.00,,,0.00,weatherlink.com 1.10,2013-11-28 11:19:00,
2013-11-28 06:34:00,17.7,16.0,30.36,NW,315,0.0,0.0,92,0.00,,,0.00,weatherlink.com 1.10,2013-11-28 11:34:00,
2013-11-28 06:49:00,17.4,16.0,30.36,NW,315,0.0,0.0,92,0.00,,,0.00,weatherlink.com 1.10,2013-11-28 11:49:00,
2013-11-28 07:04:00,-999.0,-99.9,30.36,North,-999,-999.0,-999.0,-999,0.00,,,0.00,weatherlink.com 1.10,2013-11-28 12:04:00,
2013-11-28 07:34:00,-999.0,-99.9,30.36,North,-999,-999.0,-999.0,-999,0.00,,,0.00,weatherlink.com 1.10,2013-11-28 12:34:00,
2013-11-28 07:50:00,-999.0,-99.9,30.37,North,-999,-999.0,-999.0,-999,0.00,,,0.00,weatherlink.com 1.10,2013-11-28 12:50:00,
2013-11-28 08:05:00,19.3,18.0,30.39,NW,315,0.0,0.0,94,0.00,,,0.00,weatherlink.com 1.10,2013-11-28 13:05:00,
2013-11-28 08:20:00,21.1,19.0,30.39,NW,315,0.0,0.0,93,0.00,,,0.00,weatherlink.com 1.10,2013-11-28 13:20:00,
2013-11-28 08:35:00,23.1,21.0,30.40,NW,315,0.0,0.0,91,0.00,,,0.00,weatherlink.com 1.10,2013-11-28 13:35:00,
2013-11-28 08:50:00,25.6,22.0,30.41,NW,315,0.0,0.0,86,0.00,,,0.00,weatherlink.com 1.10,2013-11-28 13:50:00,
2013-11-28 09:05:00,27.7,23.0,30.42,NW,315,0.0,0.0,81,0.00,,,0.00,weatherlink.com 1.10,2013-11-28 14:05:00,
2013-11-28 09:20:00,29.9,21.0,30.42,West,263,0.0,0.0,70,0.00,,,0.00,weatherlink.com 1.10,2013-11-28 14:20:00,
2013-11-28 09:35:00,30.7,21.0,30.43,West,263,0.0,0.0,67,0.00,,,0.00,weatherlink.com 1.10,2013-11-28 14:35:00,
2013-11-28 09:50:00,31.5,21.0,30.43,WSW,238,0.0,0.0,64,0.00,,,0.00,weatherlink.com 1.10,2013-11-28 14:50:00,
2013-11-28 10:05:00,32.4,21.0,30.44,SSW,205,0.0,0.0,63,0.00,,,0.00,weatherlink.com 1.10,2013-11-28 15:05:00,
2013-11-28 10:20:00,33.7,21.0,30.43,South,175,0.0,0.0,60,0.00,,,0.00,weatherlink.com 1.10,2013-11-28 15:20:00,
2013-11-28 10:35:00,34.3,20.0,30.43,SW,230,0.0,0.0,55,0.00,,,0.00,weatherlink.com 1.10,2013-11-28 15:35:00,
2013-11-28 10:50:00,35.1,21.0,30.43,WSW,254,0.0,0.0,57,0.00,,,0.00,weatherlink.com 1.10,2013-11-28 15:50:00,
2013-11-28 11:05:00,35.3,22.0,30.43,WSW,241,0.0,0.0,58,0.00,,,0.00,weatherlink.com 1.10,2013-11-28 16:05:00,
2013-11-28 11:20:00,36.1,21.0,30.43,WSW,238,0.0,0.0,55,0.00,,,0.00,weatherlink.com 1.10,2013-11-28 16:20:00,
2013-11-28 11:35:00,36.9,19.0,30.42,SSW,198,0.0,0.0,49,0.00,,,0.00,weatherlink.com 1.10,2013-11-28 16:35:00,
2013-11-28 11:50:00,38.0,21.0,30.42,West,265,0.0,0.0,50,0.00,,,0.00,weatherlink.com 1.10,2013-11-28 16:50:00,
2013-11-28 12:05:00,38.3,21.0,30.42,SSW,193,0.0,0.0,50,0.00,,,0.00,weatherlink.com 1.10,2013-11-28 17:05:00,
2013-11-28 12:20:00,38.6,20.0,30.41,WNW,300,0.0,0.0,48,0.00,,,0.00,weatherlink.com 1.10,2013-11-28 17:20:00,
2013-11-28 12:35:00,39.0,20.0,30.40,NW,305,0.0,0.0,47,0.00,,,0.00,weatherlink.com 1.10,2013-11-28 17:35:00,
2013-11-28 12:51:00,39.9,20.0,30.40,South,173,0.0,0.0,45,0.00,,,0.00,weatherlink.com 1.10,2013-11-28 17:51:00,
2013-11-28 13:06:00,41.0,21.0,30.39,NNE,26,0.0,0.0,46,0.00,,,0.00,weatherlink.com 1.10,2013-11-28 18:06:00,
2013-11-28 13:21:00,41.6,22.0,30.39,WNW,285,0.0,0.0,46,0.00,,,0.00,weatherlink.com 1.10,2013-11-28 18:21:00,
2013-11-28 13:36:00,42.3,21.0,30.38,SSE,151,0.0,0.0,42,0.00,,,0.00,weatherlink.com 1.10,2013-11-28 18:36:00,
2013-11-28 13:51:00,42.9,22.0,30.37,South,176,0.0,0.0,43,0.00,,,0.00,weatherlink.com 1.10,2013-11-28 18:51:00,
2013-11-28 14:06:00,43.8,22.0,30.37,SE,146,0.0,0.0,42,0.00,,,0.00,weatherlink.com 1.10,2013-11-28 19:06:00,
2013-11-28 14:21:00,43.8,20.0,30.37,South,184,0.0,0.0,39,0.00,,,0.00,weatherlink.com 1.10,2013-11-28 19:21:00,
2013-11-28 14:36:00,44.4,20.0,30.37,West,275,0.0,0.0,38,0.00,,,0.00,weatherlink.com 1.10,2013-11-28 19:36:00,
2013-11-28 14:51:00,45.1,21.0,30.38,SW,215,0.0,0.0,38,0.00,,,0.00,weatherlink.com 1.10,2013-11-28 19:51:00,
2013-11-28 15:06:00,45.4,21.0,30.38,SSW,213,0.0,0.0,38,0.00,,,0.00,weatherlink.com 1.10,2013-11-28 20:06:00,
2013-11-28 15:21:00,45.4,22.0,30.38,South,180,0.0,0.0,40,0.00,,,0.00,weatherlink.com 1.10,2013-11-28 20:21:00,
2013-11-28 15:36:00,45.9,21.0,30.38,South,180,0.0,0.0,38,0.00,,,0.00,weatherlink.com 1.10,2013-11-28 20:36:00,
2013-11-28 15:51:00,46.3,22.0,30.38,SW,217,0.0,0.0,38,0.00,,,0.00,weatherlink.com 1.10,2013-11-28 20:51:00,
2013-11-28 16:06:00,46.7,21.0,30.39,SSW,205,0.0,0.0,37,0.00,,,0.00,weatherlink.com 1.10,2013-11-28 21:06:00,
2013-11-28 16:21:00,46.7,21.0,30.39,SSW,205,0.0,0.0,37,0.00,,,0.00,weatherlink.com 1.10,2013-11-28 21:21:00,
2013-11-28 16:36:00,45.6,24.0,30.39,SSW,205,0.0,0.0,42,0.00,,,0.00,weatherlink.com 1.10,2013-11-28 21:36:00,
2013-11-28 16:51:00,43.7,26.0,30.40,South,190,0.0,0.0,51,0.00,,,0.00,weatherlink.com 1.10,2013-11-28 21:51:00,
2013-11-28 17:06:00,40.8,28.0,30.40,South,190,0.0,0.0,60,0.00,,,0.00,weatherlink.com 1.10,2013-11-28 22:06:00,
2013-11-28 17:21:00,38.2,26.0,30.41,South,190,0.0,0.0,62,0.00,,,0.00,weatherlink.com 1.10,2013-11-28 22:21:00,
2013-11-28 17:36:00,35.6,27.0,30.41,South,190,0.0,0.0,70,0.00,,,0.00,weatherlink.com 1.10,2013-11-28 22:36:00,
2013-11-28 17:51:00,33.9,27.0,30.42,South,190,0.0,0.0,75,0.00,,,0.00,weatherlink.com 1.10,2013-11-28 22:51:00,
2013-11-28 18:06:00,32.6,26.0,30.43,South,190,0.0,0.0,77,0.00,,,0.00,weatherlink.com 1.10,2013-11-28 23:06:00,
2013-11-28 18:21:00,31.4,26.0,30.44,South,190,0.0,0.0,80,0.00,,,0.00,weatherlink.com 1.10,2013-11-28 23:21:00,
2013-11-28 18:36:00,30.7,26.0,30.44,South,190,0.0,0.0,83,0.00,,,0.00,weatherlink.com 1.10,2013-11-28 23:36:00,
2013-11-28 18:51:00,29.9,25.0,30.45,South,190,0.0,0.0,83,0.00,,,0.00,weatherlink.com 1.10,2013-11-28 23:51:00,
2013-11-28 19:06:00,29.3,26.0,30.45,South,190,0.0,0.0,86,0.00,,,0.00,weatherlink.com 1.10,2013-11-29 00:06:00,
2013-11-28 19:21:00,29.0,25.0,30.45,South,190,0.0,0.0,86,0.00,,,0.00,weatherlink.com 1.10,2013-11-29 00:21:00,
2013-11-28 19:36:00,28.6,25.0,30.45,South,190,0.0,0.0,86,0.00,,,0.00,weatherlink.com 1.10,2013-11-29 00:36:00,
2013-11-28 19:51:00,28.5,25.0,30.46,South,190,0.0,0.0,87,0.00,,,0.00,weatherlink.com 1.10,2013-11-29 00:51:00,
2013-11-28 20:06:00,28.3,25.0,30.46,South,190,0.0,0.0,88,0.00,,,0.00,weatherlink.com 1.10,2013-11-29 01:06:00,
2013-11-28 20:21:00,27.9,25.0,30.46,South,190,0.0,0.0,88,0.00,,,0.00,weatherlink.com 1.10,2013-11-29 01:21:00,
2013-11-28 20:36:00,27.7,25.0,30.47,South,190,0.0,0.0,89,0.00,,,0.00,weatherlink.com 1.10,2013-11-29 01:36:00,
2013-11-28 20:51:00,27.2,25.0,30.47,South,190,0.0,0.0,90,0.00,,,0.00,weatherlink.com 1.10,2013-11-29 01:51:00,
2013-11-28 21:06:00,26.5,24.0,30.48,South,190,0.0,0.0,90,0.00,,,0.00,weatherlink.com 1.10,2013-11-29 02:06:00,
2013-11-28 21:21:00,26.1,24.0,30.47,South,190,0.0,0.0,91,0.00,,,0.00,weatherlink.com 1.10,2013-11-29 02:21:00,
2013-11-28 21:36:00,25.9,24.0,30.48,South,190,0.0,0.0,93,0.00,,,0.00,weatherlink.com 1.10,2013-11-29 02:36:00,
2013-11-28 21:52:00,25.7,24.0,30.48,South,190,0.0,0.0,92,0.00,,,0.00,weatherlink.com 1.10,2013-11-29 02:52:00,
2013-11-28 22:07:00,25.4,24.0,30.48,South,190,0.0,0.0,93,0.00,,,0.00,weatherlink.com 1.10,2013-11-29 03:07:00,
2013-11-28 22:22:00,25.1,23.0,30.49,South,190,0.0,0.0,92,0.00,,,0.00,weatherlink.com 1.10,2013-11-29 03:22:00,
2013-11-28 22:37:00,24.4,22.0,30.48,South,190,0.0,0.0,92,0.00,,,0.00,weatherlink.com 1.10,2013-11-29 03:37:00,
2013-11-28 22:52:00,24.0,22.0,30.49,South,190,0.0,0.0,93,0.00,,,0.00,weatherlink.com 1.10,2013-11-29 03:52:00,
2013-11-28 23:07:00,23.7,22.0,30.49,South,190,0.0,0.0,94,0.00,,,0.00,weatherlink.com 1.10,2013-11-29 04:07:00,
2013-11-28 23:22:00,23.9,23.0,30.49,South,190,0.0,0.0,94,0.00,,,0.00,weatherlink.com 1.10,2013-11-29 04:22:00,
2013-11-28 23:37:00,23.9,23.0,30.49,South,190,0.0,0.0,94,0.00,,,0.00,weatherlink.com 1.10,2013-11-29 04:37:00,
2013-11-28 23:52:00,23.9,23.0,30.49,South,190,0.0,0.0,94,0.00,,,0.00,weatherlink.com 1.10,2013-11-29 04:52:00,